Change the Weather History Date:

Monday, March 10, 2014

  Actual Average Record
Temperature  
Mean Temperature 34 °F -  
Max Temperature 41 °F 40 °F 66 °F (2006)
Min Temperature 27 °F 17 °F -10 °F (1996)
Degree Days  
Heating Degree Days 31    
Moisture  
Dew Point 20 °F    
Average Humidity 62    
Maximum Humidity 81    
Minimum Humidity 41    
Precipitation  
Precipitation 0.00 in - - ()
Snow  
Snow 0.00 in - - ()
Snow Depth 6.00 in    
Sea Level Pressure  
Sea Level Pressure 29.79 in    
Wind  
Wind Speed 4 mph (South)    
Max Wind Speed 12 mph    
Max Gust Speed -    
Visibility 8 miles    
Events Snow    
Averages and records for this station are not official NWS values.
T = Trace of Precipitation, MM = Missing Value Source: NWS Daily Summary

Daily Weather History Graph

Daily Weather History Graph

Search for Another Location

Airport or City:

Trip Planner

Search our weather history database for the weather conditions in past years. The results will help you decide how hot, cold, wet, or windy it might be!

Date:

Astronomy

Mar. 10, 2014 Rise Set
Actual Time 7:06 AM EDT 6:46 PM EDT
Civil Twilight 6:38 AM EDT 7:14 PM EDT
Nautical Twilight 6:05 AM EDT 7:47 PM EDT
Astronomical Twilight 5:32 AM EDT 8:20 PM EDT
Moon 1:21 PM EDT (3/10) 3:22 AM EDT (3/10)
Length of Visible Light 12h 36m
Length of Day
11h 39m
Waxing Gibbous, 70% of the Moon is Illuminated
Mar 10
Waxing Gibbous
Mar 16
Full
Mar 23
Last Quarter
Mar 30
New
Apr 7
First Quarter

Hourly Weather History & Observations

Time (EDT) Temp. Windchill Dew Point Humidity Pressure Visibility Wind Dir Wind Speed Gust Speed Precip Events Conditions
12:53 AM 28.0 °F 24.2 °F 10.0 °F 47% 29.90 in 10.0 mi South 3.5 mph - N/A   Overcast
1:53 AM 28.9 °F 25.2 °F 10.0 °F 45% 29.89 in 10.0 mi SW 3.5 mph - N/A   Overcast
2:53 AM 30.0 °F - 9.0 °F 41% 29.88 in 10.0 mi Calm Calm - N/A   Overcast
3:53 AM 30.0 °F 26.5 °F 10.0 °F 43% 29.86 in 10.0 mi South 3.5 mph - N/A   Overcast
4:53 AM 28.0 °F 21.7 °F 16.0 °F 61% 29.86 in 3.0 mi WSW 5.8 mph - 0.00 in Snow Light Snow
5:53 AM 27.0 °F 23.0 °F 21.0 °F 78% 29.84 in 3.0 mi South 3.5 mph - 0.00 in Snow Light Snow
6:01 AM 27.0 °F 21.6 °F 21.9 °F 81% 29.79 in 2.5 mi South 4.6 mph - 0.00 in Snow Light Snow
6:22 AM 27.0 °F 23.0 °F 21.9 °F 81% 29.79 in 3.0 mi South 3.5 mph - 0.00 in Snow Light Snow
6:53 AM 27.0 °F 23.0 °F 21.9 °F 81% 29.84 in 3.0 mi South 3.5 mph - 0.00 in Snow Light Snow
7:53 AM 27.0 °F 19.5 °F 21.9 °F 81% 29.83 in 10.0 mi South 6.9 mph - 0.00 in   Overcast
8:53 AM 28.0 °F 21.7 °F 23.0 °F 81% 29.84 in 10.0 mi South 5.8 mph - N/A   Overcast
9:53 AM 28.9 °F 22.8 °F 23.0 °F 78% 29.84 in 10.0 mi SSW 5.8 mph - N/A   Overcast
10:53 AM 30.9 °F 26.2 °F 23.0 °F 72% 29.83 in 10.0 mi SSW 4.6 mph - N/A   Overcast
11:53 AM 34.0 °F - 21.9 °F 61% 29.82 in 10.0 mi Calm Calm - N/A   Overcast
12:53 PM 36.0 °F 33.3 °F 21.0 °F 55% 29.80 in 10.0 mi East 3.5 mph - N/A   Mostly Cloudy
1:53 PM 37.9 °F 33.5 °F 19.9 °F 48% 29.77 in 10.0 mi WNW 5.8 mph - N/A   Overcast
2:53 PM 39.9 °F 35.1 °F 21.0 °F 47% 29.76 in 10.0 mi WNW 6.9 mph - N/A   Overcast
3:53 PM 39.9 °F - 19.9 °F 45% 29.75 in 10.0 mi Calm Calm - N/A   Overcast
4:53 PM 39.9 °F 36.7 °F 21.0 °F 47% 29.73 in 10.0 mi East 4.6 mph - N/A   Mostly Cloudy
5:53 PM 41.0 °F 38.0 °F 21.0 °F 45% 29.73 in 10.0 mi SE 4.6 mph - N/A   Mostly Cloudy
6:53 PM 39.9 °F 37.8 °F 21.0 °F 47% 29.73 in 10.0 mi SE 3.5 mph - N/A   Overcast
7:53 PM 37.9 °F 34.4 °F 21.9 °F 53% 29.73 in 10.0 mi SE 4.6 mph - N/A   Overcast
8:53 PM 36.0 °F 28.0 °F 25.0 °F 64% 29.74 in 10.0 mi SE 11.5 mph - N/A   Overcast
9:53 PM 36.0 °F 29.6 °F 26.1 °F 67% 29.71 in 10.0 mi SE 8.1 mph - N/A   Overcast
10:53 PM 36.0 °F 31.1 °F 28.0 °F 73% 29.70 in 3.0 mi SE 5.8 mph - 0.00 in Snow Light Snow
11:53 PM 35.1 °F 31.0 °F 28.9 °F 78% 29.66 in 4.0 mi Variable 4.6 mph - 0.00 in Snow Light Snow